Weather Roundup
Issued by NWS

Home | Current Version | Previous Version | Graphics & Text | Print | Product List | Glossary Off
Versions: 1 2 3 4 5 6 7 8 9 10 11 12 13 14 15 16 17 18 19 20 21 22 23 24 25 26 27 28 29 30 31 32 33 34 35 36 37 38 39 40 41 42 43 44 45 46 47 48 49 50

000
NZUS93 KARX 212359
HRRWXR

CURRENT HOURLY OBSERVATIONS ACROSS
MUCH OF THE UPPER MISSISSIPPI VALLEY
NATIONAL WEATHER SERVICE LA CROSSE WI
600 PM CST WED FEB 21 2018


...SOUTHEAST MINNESOTA...


CITY           SKY/WX    TMP DP  RH WIND       PRES   REMARKS
ROCHESTER      FAIR      17   7  64 CALM      30.62R
ROCHESTER/MAYO FAIR      20   8  60 W3        30.62S
WINONA         FAIR      21  10  63 NW3       30.65S
AUSTIN         FAIR      19  10  68 CALM      30.62R
ALBERT LEA     FAIR      19   9  63 CALM      30.61R
DODGE CENTER   FAIR      16   9  73 CALM      30.60S
PRESTON        FAIR      18  12  76 CALM      30.62R
OWATONNA       FAIR      14   9  79 CALM      30.62R
FARIBAULT      FAIR      16   7  67 CALM      30.63S
$$

...ELSEWHERE IN MINNESOTA...


CITY           SKY/WX    TMP DP  RH WIND       PRES   REMARKS
MINNEAPOLIS    FAIR      18   3  52 SW7       30.64S WCI   9
INTNL FALLS    FAIR      16   1  51 W7        30.46S WCI   6
DULUTH         FAIR      19   3  49 SW8       30.51S WCI   9
RED WING       FAIR      18   1  49 SW5       30.65R WCI  11
REDWOOD FALLS  FAIR      15   2  56 W5        30.61R WCI   8
MANKATO        FAIR      15   4  61 W6        30.64R WCI   6
WORTHINGTON    FAIR      14   6  70 CALM      30.56S
FAIRMONT       CLOUDY    15   5  64 CALM      30.62R
$$

...SOUTHWEST WISCONSIN...


CITY           SKY/WX    TMP DP  RH WIND       PRES   REMARKS
LA CROSSE      FAIR      23  14  68 CALM      30.67R
PRAIRIE DU CHI FAIR      26   8  48 NW7       30.65R WCI  18
BOSCOBEL       FAIR      26  10  50 N3        30.65S
LONE ROCK      NOT AVBL
PLATTEVILLE    FAIR      26  15  64 N7        30.61S WCI  18
FORT MC COY    FAIR      22  14  71 CALM      30.67R
MAUSTON-NEW LI FAIR      23  13  64 CALM      30.64R
VIROQUA        FAIR      22  15  76 CALM      30.61R
WIS DELLS      FAIR      24   8  50 CALM      30.62S
$$

...ELSEWHERE IN WISCONSIN...


CITY           SKY/WX    TMP DP  RH WIND       PRES   REMARKS
MILWAUKEE      MOCLDY    27  18  69 CALM      30.62R
MADISON        MOCLDY    23  12  62 N5        30.63R WCI  17
GREEN BAY      FAIR      25  11  55 SW7       30.64R WCI  17
EAU CLAIRE     NOT AVBL
BLACK RVR FLS  FAIR      20  10  64 CALM      30.65R
MEDFORD        FAIR      14   3  61 SW5       30.57R WCI   7
WAUSAU         FAIR      16   4  59 W5        30.60R WCI   9
WIS RAPIDS     FAIR      19   9  65 NW3       30.64R
MARSHFIELD     FAIR      17   7  64 W3        30.60R
RICE LAKE      FAIR      16   5  63 W3        30.63R
$$

...NORTHEAST IOWA...


CITY           SKY/WX    TMP DP  RH WIND       PRES   REMARKS
WATERLOO       FAIR      22  13  68 N7        30.63R WCI  13
DUBUQUE        FAIR      24  12  60 N7        30.62R WCI  16
DECORAH        FAIR      23  12  63 CALM      30.62R
MASON CITY     MOCLDY    21  11  65 CALM      30.62S
CHARLES CITY   MOCLDY    21  12  68 CALM      30.63S
OELWEIN        FAIR      23  16  74 N8        30.63R WCI  14
$$

...ELSEWHERE IN IOWA...


CITY           SKY/WX    TMP DP  RH WIND       PRES   REMARKS
DES MOINES     CLOUDY    25  15  66 NE8       30.60S WCI  16
IOWA CITY      FAIR      28  14  55 NE10      30.65R WCI  19
FORT DODGE     CLOUDY    18  10  71 NE5       30.61S WCI  11
MARSHALLTOWN   FAIR      22  15  75 NE9       30.61S WCI  12
CEDAR RAPIDS   FAIR      26  15  63 NE7       30.61R WCI  18
$$

...NORTHERN ILLINOIS...


CITY           SKY/WX    TMP DP  RH WIND       PRES   REMARKS
CHICAGO-OHARE  CLOUDY    29  19  66 NE9       30.61R WCI  20
CHICAGO-MIDWAY CLOUDY    29  20  69 NE14      30.61R WCI  18
MOLINE         FAIR      28  19  69 N7        30.63R WCI  21
ROCKFORD       CLOUDY    26  15  63 NE10      30.64R WCI  16
PEORIA         FAIR      30  25  81 NE8       30.58R WCI  22
$$

NOTE: "FAIR" INDICATES FEW OR NO CLOUDS BELOW 12,000 FEET WITH NO
SIGNIFICANT WEATHER AND/OR OBSTRUCTIONS TO VISIBILITY. WIND
SPEEDS ARE IN MILES-PER-HOUR.




USA.gov is the U.S. government's official web portal to all federal, state and local government web resources and services.